| time (UTC) | temp F | wind direction | speed MPH | gust MPH | rain 1hr in | rain 24hr in | rain mn in | humidity % | barometer mb |
| 20260906060657 | 60 | 170 | 0.0 | 0.0 | 0.00 | 0.00 | 0.00 | 99 | 1008.4 |
| 20260906060154 | 60 | 167 | 0.0 | 0.0 | 0.00 | 0.00 | 0.00 | 99 | 1008.4 |
| 20260906055649 | 61 | 164 | 1.0 | 1.0 | 0.00 | 0.00 | 0.00 | 99 | 1008.4 |
| 20260906055144 | 61 | 133 | 0.0 | 0.0 | 0.00 | 0.00 | 0.00 | 99 | 1008.7 |
| 20260906054640 | 61 | 143 | 0.0 | 0.0 | 0.00 | 0.00 | 0.00 | 99 | 1008.7 |
| 20260906054135 | 61 | 160 | 0.0 | 0.0 | 0.00 | 0.00 | 0.00 | 99 | 1008.7 |
| 20260906053631 | 61 | 188 | 0.0 | 0.0 | 0.00 | 0.00 | 0.00 | 99 | 1008.7 |
| 20260906053126 | 61 | 164 | 0.0 | 0.0 | 0.00 | 0.00 | 0.00 | 99 | 1008.4 |
| 20260906052621 | 61 | 178 | 0.0 | 0.0 | 0.00 | 0.00 | 0.00 | 99 | 1008.7 |
| 20260906052118 | 61 | 210 | 0.0 | 0.0 | 0.00 | 0.00 | 0.00 | 99 | 1008.4 |
| 20260906051614 | 61 | 164 | 0.0 | 0.0 | 0.00 | 0.00 | 0.00 | 99 | 1008.7 |
| 20260906051109 | 61 | 184 | 0.0 | 0.0 | 0.00 | 0.00 | 0.00 | 99 | 1008.7 |
| 20260906050604 | 61 | 172 | 0.0 | 0.0 | 0.00 | 0.00 | 0.00 | 99 | 1008.7 |
| 20260906050059 | 60 | 170 | 0.0 | 0.0 | 0.00 | 0.00 | 0.00 | 99 | 1008.4 |
| 20260906045557 | 60 | 167 | 0.0 | 0.0 | 0.00 | 0.00 | 0.00 | 99 | 1008.4 |
| 20260906045053 | 60 | 169 | 0.0 | 0.0 | 0.00 | 0.00 | 0.00 | 99 | 1008.4 |
| 20260906044549 | 60 | 173 | 0.0 | 0.0 | 0.00 | 0.00 | 0.00 | 99 | 1008.4 |
| 20260906044044 | 60 | 173 | 0.0 | 0.0 | 0.00 | 0.00 | 0.00 | 99 | 1008.4 |
| 20260906043540 | 60 | 173 | 0.0 | 0.0 | 0.00 | 0.00 | 0.00 | 99 | 1008.4 |
| 20260906043036 | 60 | 173 | 0.0 | 0.0 | 0.00 | 0.00 | 0.00 | 99 | 1008.4 |
| 20260906042534 | 60 | 173 | 0.0 | 0.0 | 0.00 | 0.00 | 0.00 | 99 | 1008.4 |
| 20260906042029 | 60 | 166 | 0.0 | 0.0 | 0.00 | 0.00 | 0.00 | 99 | 1007.9 |
| 20260906041526 | 60 | 166 | 0.0 | 0.0 | 0.00 | 0.00 | 0.00 | 99 | 1007.9 |
| 20260906041025 | 60 | 166 | 0.0 | 0.0 | 0.00 | 0.00 | 0.00 | 99 | 1008.4 |
| 20260906040520 | 60 | 166 | 0.0 | 0.0 | 0.00 | 0.00 | 0.00 | 99 | 1008.4 |
| 20260906040015 | 60 | 165 | 0.0 | 0.0 | 0.00 | 0.00 | 0.00 | 99 | 1008.4 |
| 20260906035505 | 60 | 174 | 0.0 | 0.0 | 0.00 | 0.00 | 0.00 | 99 | 1008.4 |
| 20260906035001 | 60 | 173 | 0.0 | 0.0 | 0.00 | 0.00 | 0.00 | 99 | 1008.4 |
| 20260906034500 | 61 | 174 | 0.0 | 0.0 | 0.00 | 0.00 | 0.00 | 99 | 1008.4 |
| 20260906033955 | 61 | 174 | 0.0 | 0.0 | 0.00 | 0.00 | 0.00 | 99 | 1008.4 |
| 20260906033450 | 61 | 179 | 0.0 | 0.0 | 0.00 | 0.00 | 0.00 | 99 | 1007.9 |
| 20260906032946 | 61 | 180 | 0.0 | 0.0 | 0.00 | 0.00 | 0.00 | 99 | 1007.9 |
| 20260906032443 | 61 | 170 | 0.0 | 0.0 | 0.00 | 0.00 | 0.00 | 99 | 1007.9 |
| 20260906031942 | 62 | 166 | 0.0 | 0.0 | 0.00 | 0.00 | 0.00 | 99 | 1007.9 |
| 20260906031438 | 62 | 170 | 0.0 | 0.0 | 0.00 | 0.00 | 0.00 | 99 | 1007.9 |
| 20260906030933 | 62 | 162 | 0.0 | 0.0 | 0.00 | 0.00 | 0.00 | 99 | 1008.4 |
| 20260906030428 | 61 | 170 | 0.0 | 0.0 | 0.00 | 0.00 | 0.00 | 99 | 1007.9 |
| 20260906025922 | 61 | 165 | 0.0 | 0.0 | 0.00 | 0.00 | 0.00 | 99 | 1007.9 |
| 20260906025417 | 62 | 162 | 0.0 | 0.0 | 0.00 | 0.00 | 0.00 | 99 | 1007.9 |
| 20260906024916 | 62 | 170 | 0.0 | 0.0 | 0.00 | 0.00 | 0.00 | 99 | 1007.9 |
| 20260906024415 | 62 | 164 | 0.0 | 0.0 | 0.00 | 0.00 | 0.00 | 99 | 1007.9 |
| 20260906023910 | 62 | 179 | 0.0 | 0.0 | 0.00 | 0.00 | 0.00 | 99 | 1007.9 |
| 20260906023407 | 62 | 184 | 0.0 | 0.0 | 0.00 | 0.00 | 0.00 | 99 | 1007.9 |
| 20260906022906 | 62 | 170 | 0.0 | 0.0 | 0.00 | 0.00 | 0.00 | 99 | 1007.9 |
| 20260906022401 | 62 | 170 | 0.0 | 0.0 | 0.00 | 0.00 | 0.00 | 99 | 1007.9 |
| 20260906021857 | 62 | 170 | 0.0 | 0.0 | 0.00 | 0.00 | 0.00 | 99 | 1007.9 |
| 20260906021356 | 62 | 166 | 0.0 | 0.0 | 0.00 | 0.00 | 0.00 | 99 | 1007.9 |
| 20260906020851 | 63 | 167 | 0.0 | 0.0 | 0.00 | 0.00 | 0.00 | 99 | 1007.6 |
| 20260906020351 | 63 | 164 | 0.0 | 0.0 | 0.00 | 0.00 | 0.00 | 99 | 1007.6 |
| 20260906015846 | 63 | 179 | 0.0 | 0.0 | 0.00 | 0.00 | 0.00 | 99 | 1007.9 |
| 20260906015344 | 63 | 175 | 0.0 | 0.0 | 0.00 | 0.00 | 0.00 | 99 | 1007.9 |
| 20260906014839 | 63 | 178 | 0.0 | 0.0 | 0.00 | 0.00 | 0.00 | 99 | 1007.6 |
| 20260906014333 | 63 | 170 | 0.0 | 0.0 | 0.00 | 0.00 | 0.00 | 99 | 1007.6 |
| 20260906013830 | 62 | 170 | 0.0 | 0.0 | 0.00 | 0.00 | 0.00 | 99 | 1007.6 |
| 20260906013325 | 62 | 170 | 0.0 | 0.0 | 0.00 | 0.00 | 0.00 | 99 | 1007.6 |
| 20260906012820 | 62 | 164 | 0.0 | 0.0 | 0.00 | 0.00 | 0.00 | 99 | 1007.6 |
| 20260906012315 | 62 | 161 | 0.0 | 0.0 | 0.00 | 0.00 | 0.00 | 99 | 1007.6 |
| 20260906011810 | 62 | 163 | 0.0 | 0.0 | 0.00 | 0.00 | 0.00 | 99 | 1007.6 |
| 20260906011310 | 62 | 173 | 0.0 | 0.0 | 0.00 | 0.00 | 0.00 | 99 | 1007.3 |
| 20260906010806 | 63 | 174 | 0.0 | 0.0 | 0.00 | 0.00 | 0.00 | 99 | 1007.6 |
| 20260906010302 | 63 | 177 | 0.0 | 0.0 | 0.00 | 0.00 | 0.00 | 99 | 1007.3 |
| 20260906005756 | 63 | 177 | 0.0 | 0.0 | 0.00 | 0.00 | 0.00 | 99 | 1007.3 |
| 20260906005256 | 63 | 179 | 0.0 | 0.0 | 0.00 | 0.00 | 0.00 | 99 | 1007.3 |
| 20260906004755 | 63 | 173 | 0.0 | 0.0 | 0.00 | 0.00 | 0.00 | 98 | 1006.9 |
| 20260906004249 | 63 | 173 | 0.0 | 0.0 | 0.00 | 0.00 | 0.00 | 98 | 1007.3 |
| 20260906003744 | 63 | 173 | 0.0 | 0.0 | 0.00 | 0.00 | 0.00 | 98 | 1007.3 |
| 20260906003240 | 63 | 173 | 0.0 | 0.0 | 0.00 | 0.00 | 0.00 | 97 | 1007.3 |
| 20260906002735 | 64 | 173 | 0.0 | 0.0 | 0.00 | 0.00 | 0.00 | 97 | 1006.9 |
| 20260906002234 | 64 | 173 | 0.0 | 0.0 | 0.00 | 0.00 | 0.00 | 96 | 1007.3 |
| 20260906001730 | 64 | 176 | 0.0 | 0.0 | 0.00 | 0.00 | 0.00 | 96 | 1006.9 |
| 20260906001225 | 64 | 175 | 0.0 | 0.0 | 0.00 | 0.00 | 0.00 | 95 | 1006.9 |
| 20260906000721 | 64 | 176 | 0.0 | 0.0 | 0.00 | 0.00 | 0.00 | 95 | 1006.9 |
| 20260906000215 | 65 | 193 | 0.0 | 0.0 | 0.00 | 0.00 | 0.00 | 94 | 1006.9 |
| 20260905235715 | 66 | 166 | 0.0 | 0.0 | 0.00 | 0.00 | 0.00 | 93 | 1006.9 |
| 20260905235210 | 66 | 170 | 0.0 | 0.0 | 0.00 | 0.00 | 0.00 | 92 | 1006.9 |
| 20260905234705 | 66 | 171 | 0.0 | 0.0 | 0.00 | 0.00 | 0.00 | 92 | 1006.9 |
| 20260905234201 | 67 | 171 | 0.0 | 0.0 | 0.00 | 0.00 | 0.00 | 91 | 1006.6 |
| 20260905233656 | 67 | 170 | 0.0 | 0.0 | 0.00 | 0.00 | 0.00 | 91 | 1006.6 |
| 20260905233155 | 67 | 175 | 0.0 | 0.0 | 0.00 | 0.00 | 0.00 | 92 | 1006.6 |
| 20260905232650 | 68 | 171 | 0.0 | 0.0 | 0.00 | 0.00 | 0.00 | 92 | 1006.9 |
| 20260905232146 | 68 | 163 | 0.0 | 0.0 | 0.00 | 0.00 | 0.00 | 93 | 1006.2 |
| 20260905231641 | 68 | 174 | 0.0 | 0.0 | 0.00 | 0.00 | 0.00 | 93 | 1006.6 |
| 20260905231137 | 68 | 198 | 0.0 | 0.0 | 0.00 | 0.00 | 0.00 | 91 | 1006.6 |
| 20260905230633 | 69 | 171 | 0.0 | 0.0 | 0.00 | 0.00 | 0.00 | 91 | 1006.2 |
| 20260905230131 | 69 | 181 | 0.0 | 0.0 | 0.00 | 0.00 | 0.00 | 90 | 1006.6 |
| 20260905225624 | 69 | 153 | 0.0 | 1.0 | 0.00 | 0.00 | 0.00 | 89 | 1006.2 |
| 20260905225120 | 69 | 132 | 0.0 | 0.0 | 0.00 | 0.00 | 0.00 | 90 | 1006.2 |
| 20260905224619 | 69 | 159 | 0.0 | 1.0 | 0.00 | 0.00 | 0.00 | 90 | 1006.2 |
| 20260905224119 | 69 | 163 | 1.0 | 1.0 | 0.00 | 0.00 | 0.00 | 91 | 1006.2 |
| 20260905223616 | 69 | 141 | 0.0 | 1.0 | 0.00 | 0.00 | 0.00 | 91 | 1006.2 |
| 20260905223113 | 70 | 121 | 0.0 | 2.0 | 0.00 | 0.00 | 0.00 | 92 | 1006.2 |
| 20260905222613 | 70 | 146 | 0.0 | 2.0 | 0.00 | 0.00 | 0.00 | 93 | 1006.2 |
| 20260905222108 | 70 | 149 | 0.0 | 0.0 | 0.00 | 0.00 | 0.00 | 92 | 1006.2 |
| 20260905221604 | 71 | 196 | 0.0 | 0.0 | 0.00 | 0.00 | 0.00 | 90 | 1006.2 |
| 20260905221100 | 71 | 200 | 0.0 | 1.0 | 0.00 | 0.00 | 0.00 | 86 | 1006.2 |
| 20260905220555 | 71 | 162 | 0.0 | 0.0 | 0.00 | 0.00 | 0.00 | 89 | 1005.9 |
| 20260905220051 | 72 | 162 | 0.0 | 0.0 | 0.00 | 0.00 | 0.00 | 90 | 1006.2 |
| 20260905215550 | 71 | 162 | 0.0 | 0.0 | 0.00 | 0.00 | 0.00 | 87 | 1006.2 |
| 20260905215046 | 70 | 132 | 0.0 | 0.0 | 0.00 | 0.00 | 0.00 | 89 | 1006.2 |
| 20260905214542 | 71 | 132 | 0.0 | 0.0 | 0.00 | 0.00 | 0.00 | 89 | 1006.2 |
| 20260905214037 | 71 | 132 | 0.0 | 0.0 | 0.00 | 0.00 | 0.00 | 87 | 1006.2 |
| 20260905213532 | 71 | 132 | 0.0 | 0.0 | 0.00 | 0.00 | 0.00 | 87 | 1005.9 |
| 20260905213028 | 71 | 132 | 0.0 | 0.0 | 0.00 | 0.00 | 0.00 | 89 | 1006.2 |
| 20260905212522 | 72 | 132 | 0.0 | 0.0 | 0.00 | 0.00 | 0.00 | 87 | 1005.9 |
| 20260905212022 | 71 | 132 | 0.0 | 0.0 | 0.00 | 0.00 | 0.00 | 86 | 1005.9 |
| 20260905211517 | 71 | 132 | 0.0 | 0.0 | 0.00 | 0.00 | 0.00 | 88 | 1005.9 |
| 20260905211013 | 72 | 132 | 0.0 | 0.0 | 0.00 | 0.00 | 0.00 | 87 | 1005.9 |
| 20260905210509 | 71 | 132 | 0.0 | 0.0 | 0.00 | 0.00 | 0.00 | 84 | 1005.6 |
| 20260905210008 | 71 | 132 | 0.0 | 1.0 | 0.00 | 0.00 | 0.00 | 88 | 1005.6 |
| 20260905205503 | 71 | 132 | 0.0 | 1.0 | 0.00 | 0.00 | 0.00 | 90 | 1005.6 |
| 20260905205001 | 71 | 132 | 0.0 | 0.0 | 0.00 | 0.00 | 0.00 | 89 | 1005.6 |
| 20260905204457 | 71 | 167 | 0.0 | 0.0 | 0.00 | 0.00 | 0.00 | 91 | 1005.6 |
| 20260905203956 | 71 | 174 | 0.0 | 0.0 | 0.00 | 0.00 | 0.00 | 90 | 1005.6 |
| 20260905203452 | 71 | 190 | 0.0 | 0.0 | 0.00 | 0.00 | 0.00 | 89 | 1005.6 |
| 20260905202947 | 70 | 149 | 0.0 | 0.0 | 0.00 | 0.00 | 0.00 | 91 | 1005.6 |
| 20260905202442 | 69 | 174 | 0.0 | 0.0 | 0.00 | 0.00 | 0.00 | 94 | 1005.6 |
| 20260905201938 | 69 | 191 | 0.0 | 0.0 | 0.00 | 0.00 | 0.00 | 94 | 1005.6 |
| 20260905201433 | 69 | 176 | 0.0 | 0.0 | 0.00 | 0.00 | 0.00 | 94 | 1005.6 |
| 20260905200933 | 68 | 163 | 0.0 | 0.0 | 0.00 | 0.00 | 0.00 | 93 | 1005.6 |
| 20260905200429 | 68 | 167 | 0.0 | 0.0 | 0.00 | 0.00 | 0.00 | 92 | 1005.6 |
| 20260905195927 | 69 | 159 | 0.0 | 0.0 | 0.00 | 0.00 | 0.00 | 91 | 1005.6 |
| 20260905195422 | 69 | 159 | 0.0 | 0.0 | 0.00 | 0.00 | 0.00 | 88 | 1005.6 |
| 20260905194918 | 69 | 151 | 0.0 | 0.0 | 0.00 | 0.00 | 0.00 | 85 | 1005.6 |
| 20260905194417 | 70 | 248 | 2.0 | 2.0 | 0.00 | 0.00 | 0.00 | 81 | 1005.6 |
| 20260905193917 | 73 | 194 | 2.0 | 2.0 | 0.00 | 0.00 | 0.00 | 78 | 1005.6 |
| 20260905193412 | 73 | 265 | 1.0 | 2.0 | 0.00 | 0.00 | 0.00 | 77 | 1005.6 |
| 20260905192907 | 75 | 199 | 0.0 | 1.0 | 0.00 | 0.00 | 0.00 | 73 | 1005.2 |
| 20260905192402 | 75 | 137 | 0.0 | 3.0 | 0.00 | 0.00 | 0.00 | 77 | 1005.2 |
| 20260905191857 | 75 | 162 | 0.0 | 1.0 | 0.00 | 0.00 | 0.00 | 65 | 1005.2 |
| 20260905191356 | 76 | 337 | 3.0 | 6.0 | 0.00 | 0.00 | 0.00 | 66 | 1005.6 |
| 20260905190855 | 75 | 299 | 2.0 | 4.0 | 0.00 | 0.00 | 0.00 | 73 | 1005.2 |
| 20260905190348 | 75 | 266 | 2.0 | 3.0 | 0.00 | 0.00 | 0.00 | 70 | 1005.6 |
| 20260905185848 | 74 | 265 | 2.0 | 2.0 | 0.00 | 0.00 | 0.00 | 75 | 1005.2 |
| 20260905185343 | 74 | 134 | 0.0 | 0.0 | 0.00 | 0.00 | 0.00 | 79 | 1005.6 |
| 20260905184842 | 73 | 160 | 0.0 | 0.0 | 0.00 | 0.00 | 0.00 | 77 | 1005.6 |
| 20260905184341 | 72 | 167 | 0.0 | 0.0 | 0.00 | 0.00 | 0.00 | 78 | 1005.6 |
| 20260905183840 | 72 | 163 | 0.0 | 0.0 | 0.00 | 0.00 | 0.00 | 77 | 1005.6 |
| 20260905183335 | 73 | 154 | 0.0 | 1.0 | 0.00 | 0.00 | 0.00 | 77 | 1005.6 |
| 20260905182830 | 74 | 155 | 1.0 | 2.0 | 0.00 | 0.00 | 0.00 | 75 | 1005.6 |
| 20260905182329 | 75 | 204 | 1.0 | 1.0 | 0.00 | 0.00 | 0.00 | 72 | 1005.6 |
| 20260905181825 | 78 | 193 | 0.0 | 2.0 | 0.00 | 0.00 | 0.00 | 64 | 1005.6 |
| 20260905181324 | 77 | 248 | 2.0 | 4.0 | 0.00 | 0.00 | 0.00 | 69 | 1005.6 |
| 20260905180824 | 74 | 203 | 1.0 | 2.0 | 0.00 | 0.00 | 0.00 | 69 | 1005.6 |
| 20260905180319 | 74 | 232 | 1.0 | 4.0 | 0.00 | 0.00 | 0.00 | 74 | 1005.6 |
| 20260905175814 | 75 | 140 | 1.0 | 2.0 | 0.00 | 0.00 | 0.00 | 70 | 1005.6 |
| 20260905175308 | 75 | 29 | 2.0 | 3.0 | 0.00 | 0.00 | 0.00 | 67 | 1005.6 |
| 20260905174804 | 76 | 99 | 1.0 | 4.0 | 0.00 | 0.00 | 0.00 | 71 | 1005.9 |
| 20260905174300 | 75 | 134 | 1.0 | 2.0 | 0.00 | 0.00 | 0.00 | 70 | 1005.6 |
| 20260905173755 | 75 | 154 | 0.0 | 2.0 | 0.00 | 0.00 | 0.00 | 68 | 1005.6 |
| 20260905173251 | 76 | 220 | 2.0 | 7.0 | 0.00 | 0.00 | 0.00 | 70 | 1005.6 |
| 20260905172751 | 77 | 140 | 1.0 | 1.0 | 0.00 | 0.00 | 0.00 | 74 | 1005.6 |
| 20260905172249 | 76 | 86 | 2.0 | 3.0 | 0.00 | 0.00 | 0.00 | 66 | 1005.6 |
| 20260905171746 | 75 | 148 | 0.0 | 4.0 | 0.00 | 0.00 | 0.00 | 68 | 1005.6 |
| 20260905171242 | 75 | 290 | 2.0 | 3.0 | 0.00 | 0.00 | 0.00 | 70 | 1005.6 |
| 20260905170738 | 75 | 215 | 1.0 | 3.0 | 0.00 | 0.00 | 0.00 | 71 | 1005.6 |
| 20260905170233 | 74 | 114 | 0.0 | 3.0 | 0.00 | 0.00 | 0.00 | 67 | 1005.9 |
| 20260905165732 | 74 | 54 | 1.0 | 3.0 | 0.00 | 0.00 | 0.00 | 71 | 1006.2 |
| 20260905165228 | 73 | 352 | 2.0 | 3.0 | 0.00 | 0.00 | 0.00 | 68 | 1005.9 |
| 20260905164727 | 73 | 313 | 2.0 | 6.0 | 0.00 | 0.00 | 0.00 | 74 | 1005.9 |
| 20260905164222 | 77 | 327 | 3.0 | 4.0 | 0.00 | 0.00 | 0.00 | 70 | 1005.6 |
| 20260905163718 | 76 | 168 | 0.0 | 2.0 | 0.00 | 0.00 | 0.00 | 69 | 1005.9 |
| 20260905163215 | 74 | 162 | 0.0 | 3.0 | 0.00 | 0.00 | 0.00 | 71 | 1005.6 |
| 20260905162711 | 73 | 301 | 4.0 | 4.0 | 0.00 | 0.00 | 0.00 | 74 | 1005.6 |
| 20260905162210 | 74 | 184 | 1.0 | 3.0 | 0.00 | 0.00 | 0.00 | 74 | 1005.9 |
| 20260905161705 | 75 | 303 | 4.0 | 4.0 | 0.00 | 0.00 | 0.00 | 71 | 1005.9 |
| 20260905161203 | 73 | 176 | 0.0 | 1.0 | 0.00 | 0.00 | 0.00 | 77 | 1005.6 |
| 20260905160656 | 73 | 167 | 0.0 | 2.0 | 0.00 | 0.00 | 0.00 | 77 | 1005.6 |
| 20260905160155 | 75 | 162 | 1.0 | 3.0 | 0.00 | 0.00 | 0.00 | 72 | 1005.9 |
| 20260905155650 | 75 | 154 | 0.0 | 2.0 | 0.00 | 0.00 | 0.00 | 73 | 1005.6 |
| 20260905155149 | 73 | 152 | 3.0 | 4.0 | 0.00 | 0.00 | 0.00 | 70 | 1005.9 |
| 20260905154644 | 72 | 166 | 0.0 | 2.0 | 0.00 | 0.00 | 0.00 | 75 | 1005.6 |
| 20260905154139 | 72 | 227 | 1.0 | 2.0 | 0.00 | 0.00 | 0.00 | 75 | 1005.9 |
| 20260905153635 | 74 | 178 | 2.0 | 8.0 | 0.00 | 0.00 | 0.00 | 73 | 1006.2 |
| 20260905153130 | 73 | 230 | 0.0 | 2.0 | 0.00 | 0.00 | 0.00 | 76 | 1005.9 |
| 20260905152625 | 73 | 143 | 2.0 | 3.0 | 0.00 | 0.00 | 0.00 | 78 | 1005.9 |
| 20260905152120 | 73 | 259 | 2.0 | 3.0 | 0.00 | 0.00 | 0.00 | 74 | 1006.2 |
| 20260905151615 | 73 | 175 | 1.0 | 2.0 | 0.00 | 0.00 | 0.00 | 79 | 1006.2 |
| 20260905151110 | 72 | 216 | 0.0 | 2.0 | 0.00 | 0.00 | 0.00 | 79 | 1006.2 |
| 20260905150606 | 71 | 166 | 0.0 | 2.0 | 0.00 | 0.00 | 0.00 | 79 | 1005.9 |
| 20260905145556 | 72 | 355 | 2.0 | 3.0 | 0.00 | 0.00 | 0.00 | 82 | 1005.9 |
| 20260905145056 | 72 | 217 | 3.0 | 4.0 | 0.00 | 0.00 | 0.00 | 77 | 1006.2 |
| 20260905144551 | 71 | 261 | 2.0 | 6.0 | 0.00 | 0.00 | 0.00 | 79 | 1006.2 |
| 20260905144050 | 71 | 112 | 2.0 | 4.0 | 0.00 | 0.00 | 0.00 | 79 | 1005.9 |
| 20260905143550 | 72 | 191 | 1.0 | 2.0 | 0.00 | 0.00 | 0.00 | 83 | 1005.9 |
| 20260905143045 | 71 | 185 | 0.0 | 4.0 | 0.00 | 0.00 | 0.00 | 80 | 1005.6 |
| 20260905142544 | 71 | 287 | 1.0 | 4.0 | 0.00 | 0.00 | 0.00 | 81 | 1005.6 |
| 20260905142038 | 70 | 276 | 4.0 | 7.0 | 0.00 | 0.00 | 0.00 | 81 | 1005.6 |
| 20260905141533 | 69 | 180 | 1.0 | 4.0 | 0.00 | 0.00 | 0.00 | 82 | 1005.9 |
| 20260905141029 | 70 | 140 | 0.0 | 3.0 | 0.00 | 0.00 | 0.00 | 84 | 1005.9 |
| 20260905140524 | 69 | 86 | 1.0 | 3.0 | 0.00 | 0.00 | 0.00 | 82 | 1005.9 |
| 20260905140023 | 69 | 273 | 2.0 | 4.0 | 0.00 | 0.00 | 0.00 | 84 | 1005.9 |
| 20260905135519 | 68 | 57 | 2.0 | 6.0 | 0.00 | 0.00 | 0.00 | 85 | 1005.9 |
| 20260905135013 | 68 | 273 | 2.0 | 6.0 | 0.00 | 0.00 | 0.00 | 86 | 1005.9 |
| 20260905134508 | 68 | 158 | 0.0 | 3.0 | 0.00 | 0.00 | 0.00 | 88 | 1005.6 |
| 20260905134007 | 67 | 269 | 2.0 | 3.0 | 0.00 | 0.00 | 0.00 | 89 | 1006.2 |
| 20260905133503 | 67 | 194 | 2.0 | 6.0 | 0.00 | 0.00 | 0.00 | 89 | 1006.2 |
| 20260905133001 | 67 | 270 | 0.0 | 4.0 | 0.00 | 0.00 | 0.00 | 90 | 1006.2 |
| 20260905132457 | 66 | 26 | 1.0 | 2.0 | 0.00 | 0.00 | 0.00 | 91 | 1006.2 |
| 20260905131951 | 66 | 260 | 2.0 | 3.0 | 0.00 | 0.00 | 0.00 | 90 | 1006.2 |
| 20260905131447 | 66 | 179 | 0.0 | 1.0 | 0.00 | 0.00 | 0.00 | 92 | 1006.2 |
| 20260905130948 | 66 | 114 | 0.0 | 4.0 | 0.00 | 0.00 | 0.00 | 91 | 1006.2 |
| 20260905130442 | 65 | 281 | 4.0 | 7.0 | 0.00 | 0.00 | 0.00 | 92 | 1006.2 |
| 20260905125941 | 65 | 174 | 0.0 | 0.0 | 0.00 | 0.00 | 0.00 | 93 | 1005.9 |
| 20260905125436 | 65 | 161 | 0.0 | 1.0 | 0.00 | 0.00 | 0.00 | 94 | 1006.6 |
| 20260905124932 | 65 | 197 | 0.0 | 1.0 | 0.00 | 0.00 | 0.00 | 93 | 1006.2 |
| 20260905124429 | 64 | 73 | 2.0 | 2.0 | 0.00 | 0.00 | 0.00 | 94 | 1006.2 |
| 20260905123928 | 64 | 231 | 0.0 | 2.0 | 0.00 | 0.00 | 0.00 | 95 | 1006.6 |
| 20260905123425 | 63 | 201 | 0.0 | 2.0 | 0.00 | 0.00 | 0.00 | 97 | 1006.2 |
| 20260905122920 | 63 | 244 | 1.0 | 2.0 | 0.00 | 0.00 | 0.00 | 99 | 1006.2 |
| 20260905122420 | 62 | 122 | 0.0 | 2.0 | 0.00 | 0.00 | 0.00 | 99 | 1006.6 |
| 20260905121915 | 62 | 142 | 0.0 | 3.0 | 0.00 | 0.00 | 0.00 | 99 | 1006.2 |
| 20260905121411 | 61 | 189 | 0.0 | 0.0 | 0.00 | 0.00 | 0.00 | 99 | 1006.2 |
| 20260905120909 | 61 | 223 | 0.0 | 0.0 | 0.00 | 0.00 | 0.00 | 99 | 1006.2 |
| 20260905120404 | 61 | 160 | 0.0 | 1.0 | 0.00 | 0.00 | 0.00 | 99 | 1006.2 |
| 20260905115859 | 61 | 183 | 0.0 | 1.0 | 0.00 | 0.00 | 0.00 | 99 | 1006.2 |
| 20260905115358 | 60 | 153 | 0.0 | 1.0 | 0.00 | 0.00 | 0.00 | 99 | 1006.2 |
| 20260905114853 | 60 | 162 | 0.0 | 0.0 | 0.00 | 0.00 | 0.00 | 99 | 1006.2 |
| 20260905114352 | 60 | 198 | 0.0 | 2.0 | 0.00 | 0.00 | 0.00 | 99 | 1005.6 |
| 20260905113846 | 60 | 156 | 0.0 | 1.0 | 0.00 | 0.00 | 0.00 | 99 | 1005.9 |
| 20260905113341 | 59 | 176 | 0.0 | 0.0 | 0.00 | 0.00 | 0.00 | 99 | 1005.9 |
| 20260905112837 | 59 | 201 | 0.0 | 0.0 | 0.00 | 0.00 | 0.00 | 99 | 1005.9 |
| 20260905112331 | 59 | 186 | 0.0 | 0.0 | 0.00 | 0.00 | 0.00 | 99 | 1005.9 |
| 20260905111827 | 58 | 177 | 0.0 | 0.0 | 0.00 | 0.00 | 0.00 | 99 | 1005.9 |
| 20260905111321 | 58 | 215 | 1.0 | 1.0 | 0.00 | 0.00 | 0.00 | 99 | 1005.6 |
| 20260905110820 | 58 | 178 | 0.0 | 0.0 | 0.00 | 0.00 | 0.00 | 99 | 1005.6 |
| 20260905110314 | 58 | 211 | 0.0 | 0.0 | 0.00 | 0.00 | 0.00 | 99 | 1005.6 |
| 20260905105810 | 58 | 172 | 0.0 | 0.0 | 0.00 | 0.00 | 0.00 | 99 | 1005.6 |
| 20260905105309 | 58 | 180 | 0.0 | 0.0 | 0.00 | 0.00 | 0.00 | 99 | 1005.6 |
| 20260905104803 | 58 | 181 | 0.0 | 0.0 | 0.00 | 0.00 | 0.00 | 99 | 1005.6 |
| 20260905104300 | 58 | 181 | 0.0 | 0.0 | 0.00 | 0.00 | 0.00 | 99 | 1005.6 |
| 20260905103759 | 58 | 173 | 0.0 | 0.0 | 0.00 | 0.00 | 0.00 | 99 | 1005.2 |
| 20260905103255 | 58 | 190 | 0.0 | 0.0 | 0.00 | 0.00 | 0.00 | 99 | 1005.6 |
| 20260905102750 | 58 | 190 | 0.0 | 0.0 | 0.00 | 0.00 | 0.00 | 99 | 1005.2 |
| 20260905102247 | 58 | 183 | 0.0 | 0.0 | 0.00 | 0.00 | 0.00 | 99 | 1005.6 |
| 20260905101746 | 58 | 186 | 0.0 | 0.0 | 0.00 | 0.00 | 0.00 | 99 | 1005.2 |
| 20260905101245 | 59 | 197 | 0.0 | 0.0 | 0.00 | 0.00 | 0.00 | 99 | 1005.2 |
| 20260905100740 | 59 | 209 | 0.0 | 0.0 | 0.00 | 0.00 | 0.00 | 99 | 1005.2 |
| 20260905100236 | 59 | 183 | 0.0 | 0.0 | 0.00 | 0.00 | 0.00 | 99 | 1005.2 |
| 20260905095735 | 59 | 189 | 0.0 | 0.0 | 0.00 | 0.00 | 0.00 | 99 | 1005.6 |
| 20260905095235 | 59 | 187 | 0.0 | 0.0 | 0.00 | 0.00 | 0.00 | 99 | 1005.2 |
| 20260905094730 | 59 | 189 | 0.0 | 0.0 | 0.00 | 0.00 | 0.00 | 99 | 1005.2 |
| 20260905094225 | 59 | 176 | 0.0 | 0.0 | 0.00 | 0.00 | 0.00 | 99 | 1005.2 |
| 20260905093719 | 59 | 179 | 0.0 | 0.0 | 0.00 | 0.00 | 0.00 | 99 | 1005.2 |
| 20260905093215 | 59 | 184 | 0.0 | 0.0 | 0.00 | 0.00 | 0.00 | 99 | 1005.2 |
| 20260905092710 | 59 | 189 | 0.0 | 0.0 | 0.00 | 0.00 | 0.00 | 99 | 1005.2 |
| 20260905092206 | 59 | 192 | 0.0 | 0.0 | 0.00 | 0.00 | 0.00 | 99 | 1005.2 |
| 20260905091705 | 59 | 185 | 0.0 | 0.0 | 0.00 | 0.00 | 0.00 | 99 | 1005.2 |
| 20260905091200 | 59 | 202 | 0.0 | 0.0 | 0.00 | 0.00 | 0.00 | 99 | 1005.2 |
| 20260905090659 | 59 | 188 | 0.0 | 0.0 | 0.00 | 0.00 | 0.00 | 99 | 1005.2 |
| 20260905090155 | 59 | 185 | 0.0 | 0.0 | 0.00 | 0.00 | 0.00 | 99 | 1005.2 |
| 20260905085653 | 59 | 194 | 0.0 | 0.0 | 0.00 | 0.00 | 0.00 | 99 | 1005.6 |
| 20260905085149 | 60 | 174 | 0.0 | 0.0 | 0.00 | 0.00 | 0.00 | 99 | 1005.2 |
| 20260905084649 | 60 | 172 | 0.0 | 0.0 | 0.00 | 0.00 | 0.00 | 99 | 1005.2 |
| 20260905084143 | 60 | 207 | 0.0 | 0.0 | 0.00 | 0.00 | 0.00 | 99 | 1004.9 |
| 20260905083638 | 60 | 185 | 0.0 | 0.0 | 0.00 | 0.00 | 0.00 | 99 | 1004.9 |
| 20260905083135 | 60 | 201 | 0.0 | 0.0 | 0.00 | 0.00 | 0.00 | 99 | 1005.2 |
| 20260905082630 | 60 | 179 | 0.0 | 0.0 | 0.00 | 0.00 | 0.00 | 99 | 1005.2 |
| 20260905082126 | 60 | 184 | 0.0 | 0.0 | 0.00 | 0.00 | 0.00 | 99 | 1005.6 |
| 20260905081625 | 60 | 183 | 0.0 | 0.0 | 0.00 | 0.00 | 0.00 | 99 | 1005.2 |
| 20260905081120 | 60 | 175 | 0.0 | 0.0 | 0.00 | 0.00 | 0.00 | 99 | 1005.2 |
| 20260905080615 | 60 | 183 | 0.0 | 0.0 | 0.00 | 0.00 | 0.00 | 99 | 1005.2 |
| 20260905080115 | 61 | 186 | 0.0 | 0.0 | 0.00 | 0.00 | 0.00 | 99 | 1005.2 |
| 20260905075614 | 61 | 205 | 0.0 | 0.0 | 0.00 | 0.00 | 0.00 | 99 | 1005.2 |
| 20260905075108 | 61 | 198 | 0.0 | 0.0 | 0.00 | 0.00 | 0.00 | 99 | 1005.2 |
| 20260905074607 | 61 | 188 | 0.0 | 0.0 | 0.00 | 0.00 | 0.00 | 99 | 1005.2 |
| 20260905074103 | 61 | 178 | 0.0 | 0.0 | 0.00 | 0.00 | 0.00 | 99 | 1004.9 |
| 20260905073559 | 61 | 172 | 0.0 | 1.0 | 0.00 | 0.00 | 0.00 | 99 | 1005.2 |
| 20260905073054 | 61 | 183 | 0.0 | 0.0 | 0.00 | 0.00 | 0.00 | 99 | 1005.2 |
| 20260905072553 | 61 | 156 | 0.0 | 0.0 | 0.00 | 0.00 | 0.00 | 99 | 1004.9 |
| 20260905072049 | 61 | 178 | 0.0 | 0.0 | 0.00 | 0.00 | 0.00 | 99 | 1005.2 |
| 20260905071546 | 61 | 205 | 1.0 | 1.0 | 0.00 | 0.00 | 0.00 | 98 | 1005.2 |
| 20260905071040 | 61 | 177 | 0.0 | 0.0 | 0.00 | 0.00 | 0.00 | 98 | 1005.2 |
| 20260905070535 | 62 | 177 | 0.0 | 0.0 | 0.00 | 0.00 | 0.00 | 98 | 1005.2 |
| 20260905070031 | 62 | 164 | 0.0 | 0.0 | 0.00 | 0.00 | 0.00 | 97 | 1005.2 |
| 20260905065529 | 62 | 173 | 0.0 | 0.0 | 0.00 | 0.00 | 0.00 | 97 | 1005.2 |
| 20260905065024 | 62 | 187 | 0.0 | 0.0 | 0.00 | 0.00 | 0.00 | 96 | 1005.2 |
| 20260905064519 | 61 | 167 | 0.0 | 0.0 | 0.00 | 0.00 | 0.00 | 96 | 1005.6 |
| 20260905064015 | 61 | 173 | 0.0 | 0.0 | 0.00 | 0.00 | 0.00 | 97 | 1005.2 |
| 20260905063513 | 61 | 179 | 0.0 | 0.0 | 0.00 | 0.00 | 0.00 | 97 | 1005.6 |
| 20260905063010 | 62 | 175 | 0.0 | 0.0 | 0.00 | 0.00 | 0.00 | 97 | 1005.6 |
| 20260905062509 | 62 | 172 | 0.0 | 0.0 | 0.00 | 0.00 | 0.00 | 97 | 1005.6 |
| 20260905062005 | 62 | 149 | 0.0 | 0.0 | 0.00 | 0.00 | 0.00 | 97 | 1005.6 |
| 20260905061500 | 62 | 181 | 0.0 | 0.0 | 0.00 | 0.00 | 0.00 | 96 | 1005.6 |